www.pogodaiklimat.ru

Погода и климат >> Архив погоды >> Гана >> Кумаси


ПОГОДА в Кумаси

  • Прогноз погоды в Кумаси
  • Монитор погоды в Кумаси

АРХИВ ПОГОДЫ в Кумаси

Время (UTC), дата Ветер
(напр.,м/с)
 
Видим.   Явления Облачность Т
(С)
Тd
(С)
f
(%)
Тe
(С)
Тes
(С)
Комфортность P
(гПа)
Po
(гПа)
Тmin
(С)
Tmax
(С)
R
(мм)
R24
(мм)
S
(см)
09 11.06 ЮЗ 2 10 км 9/6 270 м
[Sc Ac trans]
+25.0 +22.6 87 +33 +35 очень
душно
1016.1 982.5
03 12.06 ЮЗ 3 8000 м дымка 9/9 240 м
[Sc]
+23.6 +22.8 95 +31 +31 очень
душно
1013.8 980.2
06 12.06 ЮЗ 1 6000 м дымка 9/8 210 м
[Sc Ac trans]
+23.2 +22.7 97 +32 +32 очень
душно
1015.1 981.4 +23.1
09 13.06 З 1 12 км 9/5 270 м
[Sc Ac trans]
+24.8 +24.3 97 +34 +37 очень
душно
1017.4 983.8
12 13.06 СЗ 3 16 км 8/8 450 м
[Cu med, cong Ac trans]
+27.6 +23.0 76 +37 +41 очень
душно
1015.5 982.2
15 13.06 С 2 16 км 8/8 480 м
[Cu med, cong Ac trans]
+29.1 +22.6 68 +38 +41 очень
душно
1013.1 980.1
18 13.06 СЗ 2 16 км 1/1 540 м
[Cu med, cong]
+29.0 +22.7 69 +38 +39 очень
душно
1012.3 979.3 +30.7
00 14.06 ЮЗ 2 14 км 9/0
[Ac trans]
+26.3 +24.0 87 +36 +36 очень
душно
1014.7 981.3
06 14.06 ЮЗ 1 6000 м дымка 9/6 240 м
[Sc Ac trans]
+24.0 +23.1 95 +32 +32 очень
душно
1014.8 981.2 +23.8
18 14.06 ЮЗ 1 12 км 9/5 360 м
[Cb cap Ac trans Cs]
+26.5 +24.0 86 +37 +37 очень
душно
1013.3 980.0 +27.7
21 14.06 СВ 1 8000 м гроза, ливневой дождь 10/4 300 м
[Cb cap Ac trans]
+22.3 +21.8 97 +30 +30 очень
душно
1015.8 981.9
03 15.06 ЮЗ 2 8000 м дымка 9/9 240 м
[Sc]
+23.8 +23.5 98 +32 +32 очень
душно
1013.4 979.8
06 15.06 ЮЗ 1 8000 м дымка 9/9 240 м
[Sc]
+23.6 +23.3 98 +32 +32 очень
душно
1014.4 980.7 +21.6 9
09 15.06 ЮЗ 2 10 км 9/8 270 м
[Sc Ac trans]
+25.1 +24.1 94 +35 +36 очень
душно
1016.0 982.5
12 15.06 ЮЗ 2 14 км 8/6 450 м
[Cu med, cong Ac trans]
+28.5 +23.6 75 +39 +45 очень
душно
1014.0 980.9
15 15.06 З 2 15 км 8/3 330 м
[Cb cap Ac trans]
+28.5 +25.0 81 +41 +45 опасность
перегрева
1013.4 980.3
18 15.06 ЮЗ 2 14 км 6/5 480 м
[Cb cap Ac trans]
+29.3 +23.7 72 +40 +40 очень
душно
1012.6 979.6 +31.3
00 16.06 ЮЗ 2 14 км {гроза, дождь} 8/8 300 м
[Sc]
+25.0 +24.3 96 +35 +35 очень
душно
1016.4 982.8 12
03 16.06 ЮЗ 2 12 км {дождь} 9/6 240 м
[Sc Ac trans]
+24.4 +23.9 97 +33 +33 очень
душно
1014.7 981.1
12 16.06 СЗ 1 14 км 6/6 300 м
[Cu Sc Ac trans Ci fib]
+28.6 +24.2 77 +40 +49 очень
душно
1015.8 982.6
15 16.06 З 4 14 км гроза без осадков 8/6 210 м
[Cb cap Ac trans]
+25.5 +24.5 94 +36 +38 очень
душно
1014.2 980.8
18 16.06 ЮЗ 1 14 км {гроза, дождь} 8/6 180 м
[Cb cap Ac trans]
+24.4 +23.9 97 +33 +33 очень
душно
1014.6 981.0 +31.3 36
03 17.06 ЮЗ 2 14 км 9/8 240 м
[Sc Ac trans]
+23.9 +23.6 98 +32 +32 очень
душно
1015.0 981.4
06 17.06 ЮЗ 2 10 км 9/8 240 м
[Sc Ac trans]
+23.9 +23.6 98 +32 +32 очень
душно
1015.6 981.9 +23.2 6
09 17.06 ЮЗ 2 14 км 8/5 420 м
[Cu med, cong Ac trans]
+26.5 +24.0 86 +37 +40 очень
душно
1016.6 983.2
12 17.06 СЗ 2 14 км 9/8 480 м
[Cu med, cong Ac trans]
+29.4 +23.8 72 +40 +44 очень
душно
1014.5 981.5
15 17.06 ЮЗ 3 14 км 5/5 450 м
[Cu med, cong Ac trans]
+31.0 +23.8 66 +43 +47 опасность
перегрева
1012.1 979.3
18 17.06 ЮЗ 2 16 км 5/5 300 м
[Cb cap Ac trans Ci sp]
+29.6 +23.3 69 +40 +40 очень
душно
1012.4 979.5 +31.2
21 17.06 Ю 1 14 км 8/0
[Cs]
+27.4 +24.5 84 +39 +39 очень
душно
1014.4 981.2

 

Местоположение метеостанции Кумаси (Гана): широта 6.72 долгота -1.60 высота над уровнем моря 293 м.

В архиве по умолчанию представлена погода в Кумаси за последнюю неделю. Архивные данные за месяц целиком и за предыдущие месяцы, начиная с января 2011 года, Вы можете получить, выбрав интересующий диапазон дат из раскрывающегося списка и нажав кнопку "Ввод!".


*Определитесь, кто Вы:
робот инопланетянин человек

Внимание! Время в таблицах - всемирное. Для получения местного времени необходимо прибавить поправку, которая равна 1 ч.

Смотрите также архив погоды в соседних городах и на ближайших метеорологических станциях:

Погода в Абетифи (Гана) (94 км)
Погода в Сефви Беквай (Гана) (99 км)
Погода в Суняни (Гана) (105 км)
Погода в Аким Ода (Гана) (111 км)
Погода в Уэнчи (Гана) (127 км)
Погода в Кофоридуа (Гана) (165 км)
Погода в Солтпонде (Гана) (179 км)
Погода в Бондуку (Кот-д'Ивуар) (197 км)
Погода в Аккра (Гана) (201 км)
Погода в Акюсе (Гана) (202 км)

Пояснения к столбцам:

Ветер - указаны скорость ветра в м/с - средняя за 10 мин, порывы в срок и между сроками (в фигурных скобках) и направление, откуда дует ветер: С - северный, СВ - северо-восточный, В - восточный, ЮВ - юго-восточный, Ю - южный, ЮЗ - юго-западный, З - западный, СЗ - северо-западный.
Видимость - горизонтальная дальность видимости в метрах или километрах. При видимости от 1 до 10 км при отсутствии осадков обычно наблюдается дымка, при ухудшении видимости до 1 км и менее - туман. В сухую погоду видимость может ухудшаться дымом, пылью или мглою.
Явления - указаны атмосферные явления, наблюдавшиеся в срок или в последний час перед сроком; фигурными скобками обозначены явления, наблюдавшиеся между сроками (за 1-3 часа до срока); квадратными скобками обозначены град или гололедные отложения с указанием их диаметра в мм.
Облачность - указаны через наклонную черту общая и нижняя облачность в баллах и высота нижней границы облаков в метрах; квадратными скобками обозначены формы облаков: Ci - перистые, Cs - перисто-слоистые, Cc - перисто-кучевые, Ac - высококучевые, As - высокослоистые, Sc - слоисто-кучевые, Ns - слоисто-дождевые, Cu - кучевые, Cb - кучево-дождевые. Подробнее классификацию облаков см. в Атласе облаков (PDF).
T - Температура воздуха - температура, измеренная на высоте 2 м над землей.
Td - Температура точки росы - температура, при понижении до которой содержащийся в воздухе водяной пар достигнет насыщения.
f - Относительная влажность воздуха - влажноcть воздуха, измеренная на высоте 2 м над землей.
Te - Эффективная температура - температура, которую ощущает одетый по сезону человек в тени. Характеристика душности погоды. При расчете учитывается влияние влажности воздуха и скорости ветра на теплоощущения человека.
Tes - Эффективная температура на солнце - температура, которую ощущает человек, с поправкой на солнечный нагрев. Характеристика знойности погоды. Зависит от высоты солнца над горизонтом, облачности и скорости ветра. Ночью, в пасмурную погоду, а также при ветре 12 м/с и более поправка равна нулю.
P - Атмосферное давление - приведенное к уровню моря атмосферное давление.
Po - Атмосферное давление - измеренное на уровне метеостанции атмосферное давление.
Tmin - Минимальная температура - минимум температуры воздуха на высоте 2 м над землей.
Tmax - Максимальная температура - максимум температуры воздуха на высоте 2 м над землей.
R - Количество осадков - Количество выпавших осадков за период времени, мм. При наведении курсора мыши на число - период времени, за который выпало указанное количество осадков.
R24 - Количество осадков - Количество выпавших осадков за 24 часа, мм.
S - Снежный покров - Высота снежного покрова, см. При наведении курсора мыши на число - состояние снежного покрова и степень покрытия местности в баллах.